Location: Unspecified
(64.9000°N, 0.0000°E)
Time: 13:12:29
(UTC+00:00)

A-11 Canister half - Pass Details

Date: 20 June 2019
Orbit: 1526 x 1683 km, 47.3° (Epoch: 22 July)

Event Time Altitude Azimuth Distance (km) Brightness Sun altitude
Rises 09:40:09 0° 261° (W) 4,687 11.3 42.7°
Reaches altitude 10° 09:44:03 10° 247° (WSW) 3,697 10.9 43.0°
Maximum altitude 09:50:34 22° 202° (SSW) 2,864 11.0 43.4°
Drops below altitude 10° 09:57:07 10° 156° (SSE) 3,711 12.0 43.9°
Sets 10:01:03 0° 143° (SE) 4,709 12.3 44.2°
